SV1RVP-13 Weather Reports


Display with metric or nautical units.
time (UTC)temp
F
wind
direction
speed
MPH
gust
MPH
rain 1hr
in
rain 24hr
in
rain mn
in
humidity
%
barometer
mb
20260504045829 54 20 1.0 0.0 0.00 0.00 0.00 62 1018.6
20260504044848 54 15 1.0 0.0 0.00 0.00 0.00 62 1018.5
20260504043837 54 101 1.0 0.0 0.00 0.00 0.00 63 1018.4
20260504042835 53 113 1.0 0.0 0.00 0.00 0.00 64 1018.5
20260504041840 52 105 1.0 0.0 0.00 0.00 0.00 66 1018.4
20260504040832 52 105 1.0 0.0 0.00 0.00 0.00 66 1018.3
20260504035829 52 355 0.0 0.0 0.00 0.00 0.00 65 1018.3
20260504034845 52 355 1.0 0.0 0.00 0.00 0.00 65 1018.2
20260504033835 52 355 1.0 0.0 0.00 0.00 0.00 65 1018.2
20260504032835 52 168 0.0 0.0 0.00 0.00 0.00 64 1018.2
20260504031836 52 168 0.0 0.0 0.00 0.00 0.00 65 1018.1
20260504030826 52 168 0.0 0.0 0.00 0.00 0.00 65 1018.0
20260504025843 52 168 0.0 0.0 0.00 0.00 0.00 64 1018.1
20260504024841 52 168 0.0 0.0 0.00 0.00 0.00 65 1018.1
20260504023829 52 112 0.0 0.0 0.00 0.00 0.00 64 1018.1
20260504022831 52 112 0.0 0.0 0.00 0.00 0.00 63 1017.9
20260504021830 52 112 1.0 0.0 0.00 0.00 0.00 63 1018.0
20260504020850 53 154 0.0 0.0 0.00 0.00 0.00 62 1018.0
20260504015844 53 159 1.0 0.0 0.00 0.00 0.00 62 1018.1
20260504014842 53 116 1.0 0.0 0.00 0.00 0.00 62 1018.1
20260504013838 53 116 0.0 0.0 0.00 0.00 0.00 61 1018.1
20260504012842 53 116 1.0 0.0 0.00 0.00 0.00 61 1018.0
20260504011843 53 95 1.0 0.0 0.00 0.00 0.00 61 1018.1
20260504010836 52 121 1.0 0.0 0.00 0.00 0.00 61 1018.0
20260504005831 52 109 0.0 0.0 0.00 0.00 0.00 61 1018.0
20260504004830 53 128 1.0 0.0 0.00 0.00 0.00 61 1018.0
20260504003840 53 109 1.0 0.0 0.00 0.00 0.00 61 1018.1
20260504002839 53 112 0.0 0.0 0.00 0.00 0.00 61 1018.0
20260504001837 52 127 0.0 0.0 0.00 0.00 0.00 61 1018.0
20260504000830 53 115 1.0 0.0 0.00 0.00 0.00 61 1018.1
20260503235828 53 112 1.0 0.0 0.00 0.00 0.00 59 1018.1
20260503234845 53 19 2.0 0.0 0.00 0.00 0.00 59 1018.1
20260503233835 53 33 2.0 0.0 0.00 0.00 0.00 59 1018.1
20260503232840 53 50 0.0 0.0 0.00 0.00 0.00 60 1018.2
20260503231839 53 286 0.0 0.0 0.00 0.00 0.00 60 1018.2
20260503230827 53 306 0.0 0.0 0.00 0.00 0.00 60 1018.3
20260503225844 53 306 0.0 0.0 0.00 0.00 0.00 60 1018.2
20260503224842 53 306 1.0 0.0 0.00 0.00 0.00 60 1018.1
20260503223836 53 316 3.0 0.0 0.00 0.00 0.00 59 1018.1
20260503222836 53 350 3.0 0.0 0.00 0.00 0.00 59 1018.0
20260503221835 53 360 4.0 0.0 0.00 0.00 0.00 60 1018.1
20260503220829 53 22 3.0 0.0 0.00 0.00 0.00 60 1018.2
20260503215842 53 15 3.0 0.0 0.00 0.00 0.00 60 1018.2
20260503214838 53 19 3.0 0.0 0.00 0.00 0.00 60 1018.3
20260503213829 54 360 1.0 0.0 0.00 0.00 0.00 59 1018.3
20260503212828 54 339 1.0 0.0 0.00 0.00 0.00 59 1018.3
20260503211830 54 327 2.0 0.0 0.00 0.00 0.00 59 1018.3
20260503210849 54 17 2.0 0.0 0.00 0.00 0.00 59 1018.2
20260503205834 54 338 3.0 0.0 0.00 0.00 0.00 59 1018.4
20260503204831 54 308 4.0 0.0 0.00 0.00 0.06 59 1018.4
20260503203854 54 350 5.0 0.0 0.00 0.00 0.06 59 1018.4
20260503202845 54 320 5.0 0.0 0.00 0.00 0.06 59 1018.4
20260503201829 54 360 6.0 0.0 0.00 0.00 0.06 59 1018.4
20260503200851 54 323 5.0 0.0 0.00 0.00 0.06 59 1018.4
20260503195834 54 332 5.0 0.0 0.00 0.00 0.06 59 1018.4
20260503194829 55 332 5.0 0.0 0.00 0.00 0.06 59 1018.4
20260503193852 55 335 7.0 0.0 0.00 0.00 0.06 58 1018.4
20260503192826 55 313 7.0 0.0 0.00 0.00 0.06 58 1018.5
20260503191828 55 348 8.0 0.0 0.00 0.00 0.06 58 1018.4
20260503190850 55 5 6.0 0.0 0.00 0.00 0.06 57 1018.3
20260503185836 55 316 8.0 0.0 0.00 0.00 0.06 57 1018.2
20260503184833 55 330 6.0 0.0 0.00 0.00 0.06 56 1018.1
20260503183825 55 338 6.0 0.0 0.00 0.00 0.06 57 1018.0
20260503182826 55 327 8.0 0.0 0.00 0.00 0.06 57 1017.9
20260503181843 55 318 6.0 0.0 0.00 0.00 0.06 57 1017.7
20260503180846 55 5 7.0 0.0 0.00 0.00 0.06 57 1017.5
20260503175831 55 339 8.0 0.0 0.00 0.00 0.06 57 1017.5
20260503174829 56 319 6.0 0.0 0.00 0.00 0.06 56 1017.3
20260503173851 56 360 7.0 0.0 0.00 0.00 0.06 56 1017.3
20260503172844 56 351 5.0 0.0 0.00 0.00 0.06 55 1017.2
20260503171826 56 33 7.0 0.0 0.00 0.00 0.06 55 1017.0
20260503170846 56 326 7.0 0.0 0.00 0.00 0.06 55 1017.1
20260503150834 59 42 9.0 0.0 0.00 0.00 0.06 50 1016.0
20260503130844 59 5 13.0 0.0 0.00 0.00 0.06 50 1015.9
20260503080837 55 13 8.0 0.0 0.00 0.00 0.06 62 1016.1
20260503072837 51 336 4.0 0.0 0.00 0.00 0.06 71 1016.4
20260503071837 50 246 4.0 0.0 0.00 0.00 0.06 74 1016.2
20260503070827 49 350 7.0 0.0 0.00 0.00 0.06 74 1016.4